Location: *
(24.1434°N, 56.8729°E)
Time: 05:50:23
(UTC+00:00)

Cosmos 1908 - Pass Details

Date: 09 April 2020
Orbit: 511 x 531 km, 82.5° (Epoch: 05 June)

Event Time Altitude Azimuth Distance (km) Brightness Sun altitude
Rises 15:49:14 0° 196° (SSW) 2,620 6.8 -18.0°
Reaches altitude 10° 15:51:24 10° 203° (SSW) 1,740 5.9 -18.5°
Maximum altitude 15:55:04 46° 277° (W) 706 4.3 -19.2°
Drops below altitude 10° 15:58:48 10° 351° (N) 1,760 6.2 -20.1°
Sets 16:01:01 0° 358° (N) 2,655 7.1 -20.5°
